Time,TemperatureF,DewpointF,PressureIn,WindDirection,WindDirectionDegrees,WindSpeedMPH,WindSpeedGustMPH,Humidity,HourlyPrecipIn,Conditions,Clouds,dailyrainin,SoftwareType,DateUTC
2013-02-07 00:00:00,59.4,56.8,29.90,ENE,67,0.0,0.0,91,0.00,,---,1.09,VWS V14.00,2013-02-07 06:00:00,
2013-02-07 00:05:00,59.2,56.6,29.90,ENE,67,0.0,1.0,91,0.00,,---,0.00,VWS V14.00,2013-02-07 06:05:00,
2013-02-07 00:10:00,59.0,56.1,29.90,ENE,67,0.0,0.0,90,0.00,,---,0.00,VWS V14.00,2013-02-07 06:10:00,
2013-02-07 00:15:00,59.0,56.1,29.90,ENE,67,0.0,0.0,90,0.00,,---,0.00,VWS V14.00,2013-02-07 06:15:00,
2013-02-07 00:20:00,59.0,56.4,29.90,ENE,67,1.0,1.0,91,0.00,,---,0.00,VWS V14.00,2013-02-07 06:20:00,
2013-02-07 00:25:00,59.0,56.4,29.90,ENE,67,0.0,0.0,91,0.00,,---,0.00,VWS V14.00,2013-02-07 06:25:00,
2013-02-07 00:30:00,59.0,56.4,29.89,ENE,67,2.0,4.0,91,0.00,,---,0.00,VWS V14.00,2013-02-07 06:30:00,
2013-02-07 00:35:00,59.0,56.4,29.89,ENE,67,0.0,3.0,91,0.00,,---,0.00,VWS V14.00,2013-02-07 06:35:00,
2013-02-07 00:40:00,59.0,56.4,29.89,ENE,67,0.0,2.0,91,0.00,,---,0.00,VWS V14.00,2013-02-07 06:40:00,
2013-02-07 00:45:00,59.0,56.4,29.89,ENE,67,0.0,0.0,91,0.00,,---,0.00,VWS V14.00,2013-02-07 06:45:00,
2013-02-07 00:50:00,59.0,56.4,29.89,ENE,67,0.0,0.0,91,0.00,,---,0.00,VWS V14.00,2013-02-07 06:50:00,
2013-02-07 00:55:00,59.0,56.4,29.89,ENE,67,0.0,0.0,91,0.00,,---,0.00,VWS V14.00,2013-02-07 06:55:00,
2013-02-07 01:00:00,59.0,56.4,29.89,ENE,67,0.0,0.0,91,0.00,,---,0.00,VWS V14.00,2013-02-07 07:00:00,
2013-02-07 01:05:00,58.6,56.0,29.89,ENE,67,0.0,0.0,91,0.00,,---,0.00,VWS V14.00,2013-02-07 07:05:00,
2013-02-07 01:10:00,58.4,55.8,29.89,ENE,67,0.0,0.0,91,0.00,,---,0.00,VWS V14.00,2013-02-07 07:10:00,
2013-02-07 01:15:00,58.2,55.6,29.88,ENE,67,0.0,0.0,91,0.00,,---,0.00,VWS V14.00,2013-02-07 07:15:00,
2013-02-07 01:20:00,58.0,55.4,29.89,ENE,67,0.0,0.0,91,0.00,,---,0.00,VWS V14.00,2013-02-07 07:20:00,
2013-02-07 01:25:00,57.8,55.2,29.89,ENE,67,0.0,0.0,91,0.00,,---,0.00,VWS V14.00,2013-02-07 07:25:00,
2013-02-07 01:30:00,57.6,55.0,29.89,ENE,67,0.0,0.0,91,0.00,,---,0.00,VWS V14.00,2013-02-07 07:30:00,
2013-02-07 01:35:00,57.4,54.8,29.89,ENE,67,0.0,0.0,91,0.00,,---,0.00,VWS V14.00,2013-02-07 07:35:00,
2013-02-07 01:40:00,57.3,54.7,29.89,ENE,67,0.0,0.0,91,0.00,,---,0.00,VWS V14.00,2013-02-07 07:40:00,
2013-02-07 01:45:00,57.3,54.7,29.88,ENE,67,0.0,1.0,91,0.00,,---,0.00,VWS V14.00,2013-02-07 07:45:00,
2013-02-07 01:50:00,57.3,54.7,29.88,ENE,67,0.0,0.0,91,0.00,,---,0.00,VWS V14.00,2013-02-07 07:50:00,
2013-02-07 01:55:00,57.0,54.4,29.88,ENE,67,0.0,0.0,91,0.00,,---,0.00,VWS V14.00,2013-02-07 07:55:00,
2013-02-07 02:00:00,56.8,54.2,29.88,ENE,67,0.0,0.0,91,0.00,,---,0.00,VWS V14.00,2013-02-07 08:00:00,
2013-02-07 02:05:00,56.6,54.0,29.88,ENE,67,0.0,0.0,91,0.00,,---,0.00,VWS V14.00,2013-02-07 08:05:00,
2013-02-07 02:10:00,56.5,53.9,29.88,ENE,67,0.0,0.0,91,0.00,,---,0.00,VWS V14.00,2013-02-07 08:10:00,
2013-02-07 02:15:00,56.3,53.7,29.88,ENE,67,0.0,0.0,91,0.00,,---,0.00,VWS V14.00,2013-02-07 08:15:00,
2013-02-07 02:20:00,56.1,53.5,29.88,ENE,67,0.0,0.0,91,0.00,,---,0.00,VWS V14.00,2013-02-07 08:20:00,
2013-02-07 02:25:00,56.0,53.4,29.88,ENE,67,0.0,0.0,91,0.00,,---,0.00,VWS V14.00,2013-02-07 08:25:00,
2013-02-07 02:30:00,55.9,53.3,29.89,ENE,67,0.0,0.0,91,0.00,,---,0.00,VWS V14.00,2013-02-07 08:30:00,
2013-02-07 02:35:00,55.6,53.0,29.89,ENE,67,0.0,0.0,91,0.00,,---,0.00,VWS V14.00,2013-02-07 08:35:00,
2013-02-07 02:40:00,55.4,52.8,29.89,ENE,67,0.0,0.0,91,0.00,,---,0.00,VWS V14.00,2013-02-07 08:40:00,
2013-02-07 02:45:00,55.2,52.6,29.89,ENE,67,0.0,0.0,91,0.00,,---,0.00,VWS V14.00,2013-02-07 08:45:00,
2013-02-07 02:50:00,55.1,52.5,29.89,ENE,67,0.0,0.0,91,0.00,,---,0.00,VWS V14.00,2013-02-07 08:50:00,
2013-02-07 02:55:00,55.0,52.4,29.89,ENE,67,0.0,0.0,91,0.00,,---,0.00,VWS V14.00,2013-02-07 08:55:00,
2013-02-07 03:00:00,54.9,52.3,29.89,ENE,67,0.0,0.0,91,0.00,,---,0.00,VWS V14.00,2013-02-07 09:00:00,
2013-02-07 03:05:00,54.8,52.2,29.89,ENE,67,0.0,0.0,91,0.00,,---,0.00,VWS V14.00,2013-02-07 09:05:00,
2013-02-07 03:10:00,54.7,52.1,29.89,ENE,67,0.0,0.0,91,0.00,,---,0.00,VWS V14.00,2013-02-07 09:10:00,
2013-02-07 03:15:00,54.7,52.1,29.89,ENE,67,0.0,0.0,91,0.00,,---,0.00,VWS V14.00,2013-02-07 09:15:00,
2013-02-07 03:20:00,54.7,52.1,29.89,ENE,67,0.0,0.0,91,0.00,,---,0.00,VWS V14.00,2013-02-07 09:20:00,
2013-02-07 03:25:00,54.6,52.0,29.89,ENE,67,0.0,0.0,91,0.00,,---,0.00,VWS V14.00,2013-02-07 09:25:00,
2013-02-07 03:30:00,54.6,52.0,29.89,ENE,67,0.0,0.0,91,0.00,,---,0.00,VWS V14.00,2013-02-07 09:30:00,
2013-02-07 03:35:00,54.7,52.1,29.89,ENE,67,0.0,0.0,91,0.00,,---,0.00,VWS V14.00,2013-02-07 09:35:00,
2013-02-07 03:40:00,54.8,52.2,29.89,ENE,67,0.0,0.0,91,0.00,,---,0.00,VWS V14.00,2013-02-07 09:40:00,
2013-02-07 03:45:00,55.0,52.4,29.89,ENE,67,0.0,0.0,91,0.00,,---,0.00,VWS V14.00,2013-02-07 09:45:00,
2013-02-07 03:50:00,55.1,52.5,29.89,ENE,67,0.0,0.0,91,0.00,,---,0.00,VWS V14.00,2013-02-07 09:50:00,
2013-02-07 03:55:00,55.4,52.8,29.89,ENE,67,0.0,0.0,91,0.00,,---,0.00,VWS V14.00,2013-02-07 09:55:00,
2013-02-07 04:00:00,55.5,52.9,29.89,ENE,67,0.0,0.0,91,0.00,,---,0.00,VWS V14.00,2013-02-07 10:00:00,
2013-02-07 04:05:00,55.6,53.0,29.89,ENE,67,0.0,0.0,91,0.00,,---,0.00,VWS V14.00,2013-02-07 10:05:00,
2013-02-07 04:10:00,55.7,53.1,29.90,ENE,67,0.0,0.0,91,0.00,,---,0.00,VWS V14.00,2013-02-07 10:10:00,
2013-02-07 04:15:00,55.6,53.0,29.89,ENE,67,0.0,0.0,91,0.00,,---,0.00,VWS V14.00,2013-02-07 10:15:00,
2013-02-07 04:20:00,55.6,53.0,29.89,ENE,67,0.0,0.0,91,0.00,,---,0.00,VWS V14.00,2013-02-07 10:20:00,
2013-02-07 04:25:00,55.5,52.9,29.89,ENE,67,0.0,0.0,91,0.00,,---,0.00,VWS V14.00,2013-02-07 10:25:00,
2013-02-07 04:30:00,55.4,52.8,29.89,ENE,67,0.0,0.0,91,0.00,,---,0.00,VWS V14.00,2013-02-07 10:30:00,
2013-02-07 04:35:00,55.3,52.7,29.89,ENE,67,0.0,0.0,91,0.00,,---,0.00,VWS V14.00,2013-02-07 10:35:00,
2013-02-07 04:40:00,55.3,52.7,29.89,ENE,67,0.0,0.0,91,0.00,,---,0.00,VWS V14.00,2013-02-07 10:40:00,
2013-02-07 04:45:00,55.3,52.7,29.89,ENE,67,0.0,0.0,91,0.00,,---,0.00,VWS V14.00,2013-02-07 10:45:00,
2013-02-07 04:50:00,55.3,52.7,29.89,ENE,67,0.0,0.0,91,0.00,,---,0.00,VWS V14.00,2013-02-07 10:50:00,
2013-02-07 04:55:00,55.2,52.6,29.89,ENE,67,0.0,0.0,91,0.00,,---,0.00,VWS V14.00,2013-02-07 10:55:00,
2013-02-07 05:00:00,55.1,52.5,29.89,ENE,67,0.0,0.0,91,0.00,,---,0.00,VWS V14.00,2013-02-07 11:00:00,
2013-02-07 05:05:00,55.0,52.4,29.89,ENE,67,0.0,0.0,91,0.00,,---,0.00,VWS V14.00,2013-02-07 11:05:00,
2013-02-07 05:10:00,54.9,52.3,29.89,ENE,67,0.0,0.0,91,0.00,,---,0.00,VWS V14.00,2013-02-07 11:10:00,
2013-02-07 05:15:00,54.8,52.2,29.89,ENE,67,0.0,0.0,91,0.00,,---,0.00,VWS V14.00,2013-02-07 11:15:00,
2013-02-07 05:20:00,54.6,52.0,29.89,ENE,67,0.0,0.0,91,0.00,,---,0.00,VWS V14.00,2013-02-07 11:20:00,
2013-02-07 05:25:00,54.4,51.8,29.89,ENE,67,0.0,0.0,91,0.00,,---,0.00,VWS V14.00,2013-02-07 11:25:00,
2013-02-07 05:30:00,54.2,51.6,29.89,ENE,67,0.0,0.0,91,0.00,,---,0.00,VWS V14.00,2013-02-07 11:30:00,
2013-02-07 05:35:00,54.2,51.9,29.89,ENE,67,0.0,0.0,92,0.00,,---,0.00,VWS V14.00,2013-02-07 11:35:00,
2013-02-07 05:40:00,54.1,51.8,29.89,ENE,67,0.0,0.0,92,0.00,,---,0.00,VWS V14.00,2013-02-07 11:40:00,
2013-02-07 05:45:00,54.0,51.4,29.89,ENE,67,0.0,0.0,91,0.00,,---,0.00,VWS V14.00,2013-02-07 11:45:00,
2013-02-07 05:50:00,53.8,51.2,29.89,ENE,67,0.0,0.0,91,0.00,,---,0.00,VWS V14.00,2013-02-07 11:50:00,
2013-02-07 05:55:00,53.7,51.1,29.89,ENE,67,0.0,0.0,91,0.00,,---,0.00,VWS V14.00,2013-02-07 11:55:00,
2013-02-07 06:00:00,53.5,50.9,29.89,ENE,67,0.0,0.0,91,0.00,,---,0.00,VWS V14.00,2013-02-07 12:00:00,
2013-02-07 06:05:00,53.4,50.8,29.90,ENE,67,0.0,0.0,91,0.00,,---,0.00,VWS V14.00,2013-02-07 12:05:00,
2013-02-07 06:10:00,53.2,50.7,29.90,ENE,67,0.0,0.0,91,0.00,,---,0.00,VWS V14.00,2013-02-07 12:10:00,
2013-02-07 06:15:00,53.0,50.5,29.90,ENE,67,0.0,0.0,91,0.00,,---,0.00,VWS V14.00,2013-02-07 12:15:00,
2013-02-07 06:20:00,52.8,50.2,29.90,ENE,67,0.0,0.0,91,0.00,,---,0.00,VWS V14.00,2013-02-07 12:20:00,
2013-02-07 06:25:00,52.6,50.0,29.89,ENE,67,0.0,0.0,91,0.00,,---,0.00,VWS V14.00,2013-02-07 12:25:00,
2013-02-07 06:30:00,52.5,50.0,29.90,ENE,67,0.0,0.0,91,0.00,,---,0.00,VWS V14.00,2013-02-07 12:30:00,
2013-02-07 06:35:00,52.4,49.8,29.89,ENE,67,0.0,0.0,91,0.00,,---,0.01,VWS V14.00,2013-02-07 12:35:00,
2013-02-07 06:40:00,52.2,49.7,29.89,ENE,67,0.0,0.0,91,0.00,,---,0.01,VWS V14.00,2013-02-07 12:40:00,
2013-02-07 06:45:00,52.1,49.6,29.89,ENE,67,0.0,0.0,91,0.00,,---,0.01,VWS V14.00,2013-02-07 12:45:00,
2013-02-07 06:50:00,52.0,49.8,29.90,ENE,67,0.0,0.0,92,0.00,,---,0.01,VWS V14.00,2013-02-07 12:50:00,
2013-02-07 06:55:00,51.9,49.4,29.90,ENE,67,0.0,0.0,91,0.00,,---,0.01,VWS V14.00,2013-02-07 12:55:00,
2013-02-07 07:00:00,51.8,49.3,29.90,ENE,67,0.0,0.0,91,0.00,,---,0.01,VWS V14.00,2013-02-07 13:00:00,
2013-02-07 07:05:00,51.7,49.2,29.90,ENE,67,0.0,0.0,91,0.00,,---,0.01,VWS V14.00,2013-02-07 13:05:00,
2013-02-07 07:10:00,51.7,49.5,29.90,ENE,67,0.0,0.0,92,0.00,,---,0.01,VWS V14.00,2013-02-07 13:10:00,
2013-02-07 07:15:00,51.8,49.3,29.90,ENE,67,0.0,0.0,91,0.00,,---,0.01,VWS V14.00,2013-02-07 13:15:00,
2013-02-07 07:20:00,51.8,49.3,29.90,ENE,67,0.0,0.0,91,0.00,,---,0.01,VWS V14.00,2013-02-07 13:20:00,
2013-02-07 07:25:00,51.7,49.5,29.90,ENE,67,0.0,0.0,92,0.00,,---,0.01,VWS V14.00,2013-02-07 13:25:00,
2013-02-07 07:30:00,51.7,49.5,29.90,ENE,67,0.0,0.0,92,0.00,,---,0.01,VWS V14.00,2013-02-07 13:30:00,
2013-02-07 07:35:00,51.7,49.5,29.90,ENE,67,0.0,0.0,92,0.00,,---,0.01,VWS V14.00,2013-02-07 13:35:00,
2013-02-07 07:40:00,51.7,49.5,29.90,ENE,67,0.0,0.0,92,0.00,,---,0.01,VWS V14.00,2013-02-07 13:40:00,
2013-02-07 07:45:00,51.8,49.5,29.90,ENE,67,0.0,0.0,92,0.00,,---,0.01,VWS V14.00,2013-02-07 13:45:00,
2013-02-07 07:50:00,52.0,49.8,29.90,ENE,67,0.0,0.0,92,0.00,,---,0.01,VWS V14.00,2013-02-07 13:50:00,
2013-02-07 07:55:00,52.3,50.0,29.90,ENE,67,0.0,0.0,92,0.00,,---,0.01,VWS V14.00,2013-02-07 13:55:00,
2013-02-07 08:00:00,53.0,50.7,29.90,ENE,67,0.0,0.0,92,0.00,,---,0.01,VWS V14.00,2013-02-07 14:00:00,
2013-02-07 08:05:00,54.0,51.7,29.91,ENE,67,0.0,0.0,92,0.00,,---,0.01,VWS V14.00,2013-02-07 14:05:00,
2013-02-07 08:10:00,54.9,52.6,29.91,ENE,67,0.0,0.0,92,0.00,,---,0.01,VWS V14.00,2013-02-07 14:10:00,
2013-02-07 08:14:00,55.6,53.3,29.91,ENE,67,0.0,0.0,92,0.00,,---,0.01,VWS V14.00,2013-02-07 14:14:00,
2013-02-07 08:19:00,56.7,54.4,29.91,ENE,67,0.0,0.0,92,0.00,,---,0.01,VWS V14.00,2013-02-07 14:19:00,
2013-02-07 08:24:00,58.4,56.1,29.91,ENE,67,0.0,1.0,92,0.00,,---,0.01,VWS V14.00,2013-02-07 14:24:00,
2013-02-07 08:29:00,59.4,57.1,29.91,ENE,67,0.0,4.0,92,0.00,,---,0.01,VWS V14.00,2013-02-07 14:29:00,
2013-02-07 08:34:00,60.2,57.9,29.91,NE,36,0.0,4.0,92,0.00,,---,0.01,VWS V14.00,2013-02-07 14:34:00,
2013-02-07 08:39:00,61.0,58.7,29.91,ENE,60,2.0,3.0,92,0.00,,---,0.01,VWS V14.00,2013-02-07 14:39:00,
2013-02-07 08:44:00,61.3,59.3,29.91,NE,53,2.0,4.0,93,0.00,,---,0.01,VWS V14.00,2013-02-07 14:44:00,
2013-02-07 08:49:00,61.6,59.3,29.91,ENE,66,5.0,5.0,92,0.00,,---,0.01,VWS V14.00,2013-02-07 14:49:00,
2013-02-07 08:54:00,61.9,59.5,29.92,NE,46,3.0,6.0,92,0.00,,---,0.01,VWS V14.00,2013-02-07 14:54:00,
2013-02-07 08:59:00,62.2,59.8,29.92,NE,55,3.0,6.0,92,0.00,,---,0.01,VWS V14.00,2013-02-07 14:59:00,
2013-02-07 09:04:00,62.3,60.0,29.92,NE,40,1.0,6.0,92,0.00,,---,0.01,VWS V14.00,2013-02-07 15:04:00,
2013-02-07 09:09:00,62.7,60.3,29.92,NE,55,3.0,6.0,92,0.00,,---,0.01,VWS V14.00,2013-02-07 15:09:00,
2013-02-07 09:14:00,63.0,60.6,29.92,ENE,71,2.0,7.0,92,0.00,,---,0.01,VWS V14.00,2013-02-07 15:14:00,
2013-02-07 09:19:00,63.3,60.9,29.92,East,83,2.0,6.0,92,0.00,,---,0.01,VWS V14.00,2013-02-07 15:19:00,
2013-02-07 09:24:00,63.6,60.9,29.92,NE,41,3.0,5.0,91,0.00,,---,0.01,VWS V14.00,2013-02-07 15:24:00,
2013-02-07 09:29:00,63.9,61.2,29.93,ESE,102,4.0,6.0,91,0.00,,---,0.01,VWS V14.00,2013-02-07 15:29:00,
2013-02-07 09:34:00,64.1,61.4,29.93,NE,50,3.0,5.0,91,0.00,,---,0.01,VWS V14.00,2013-02-07 15:34:00,
2013-02-07 09:39:00,64.2,61.2,29.93,ENE,60,3.0,6.0,90,0.00,,---,0.01,VWS V14.00,2013-02-07 15:39:00,
2013-02-07 09:44:00,64.5,61.5,29.93,NE,55,5.0,6.0,90,0.00,,---,0.01,VWS V14.00,2013-02-07 15:44:00,
2013-02-07 09:49:00,64.6,61.6,29.93,East,86,1.0,6.0,90,0.00,,---,0.01,VWS V14.00,2013-02-07 15:49:00,
2013-02-07 09:54:00,64.7,61.7,29.94,ENE,64,5.0,5.0,90,0.00,,---,0.01,VWS V14.00,2013-02-07 15:54:00,
2013-02-07 09:59:00,64.6,61.3,29.94,ENE,65,2.0,6.0,89,0.00,,---,0.01,VWS V14.00,2013-02-07 15:59:00,
2013-02-07 10:04:00,64.4,61.1,29.94,East,95,0.0,3.0,89,0.00,,---,0.01,VWS V14.00,2013-02-07 16:04:00,
2013-02-07 10:09:00,64.5,61.2,29.95,East,101,0.0,1.0,89,0.00,,---,0.01,VWS V14.00,2013-02-07 16:09:00,
2013-02-07 10:14:00,64.7,61.4,29.95,ENE,71,0.0,4.0,89,0.00,,---,0.01,VWS V14.00,2013-02-07 16:14:00,
2013-02-07 10:19:00,64.9,61.6,29.95,ENE,60,0.0,4.0,89,0.00,,---,0.01,VWS V14.00,2013-02-07 16:19:00,
2013-02-07 10:24:00,64.9,61.6,29.95,East,93,1.0,5.0,89,0.00,,---,0.01,VWS V14.00,2013-02-07 16:24:00,
2013-02-07 10:29:00,64.9,61.6,29.95,ESE,103,3.0,5.0,89,0.00,,---,0.01,VWS V14.00,2013-02-07 16:29:00,
2013-02-07 10:34:00,64.9,61.6,29.95,East,81,0.0,6.0,89,0.00,,---,0.01,VWS V14.00,2013-02-07 16:34:00,
2013-02-07 10:39:00,65.1,61.8,29.95,East,90,0.0,4.0,89,0.00,,---,0.01,VWS V14.00,2013-02-07 16:39:00,
2013-02-07 10:44:00,65.3,62.0,29.95,ENE,65,0.0,1.0,89,0.00,,---,0.01,VWS V14.00,2013-02-07 16:44:00,
2013-02-07 10:49:00,65.6,62.3,29.95,NNE,32,3.0,4.0,89,0.00,,---,0.01,VWS V14.00,2013-02-07 16:49:00,
2013-02-07 10:54:00,65.7,62.4,29.95,East,98,0.0,3.0,89,0.00,,---,0.01,VWS V14.00,2013-02-07 16:54:00,
2013-02-07 10:59:00,65.9,62.2,29.95,East,98,0.0,3.0,88,0.00,,---,0.01,VWS V14.00,2013-02-07 16:59:00,
2013-02-07 11:04:00,65.9,62.2,29.95,South,171,3.0,3.0,88,0.00,,---,0.01,VWS V14.00,2013-02-07 17:04:00,
2013-02-07 11:09:00,66.1,62.5,29.95,NE,36,0.0,0.0,88,0.00,,---,0.01,VWS V14.00,2013-02-07 17:09:00,
2013-02-07 11:14:00,66.2,62.5,29.95,ENE,78,0.0,2.0,88,0.00,,---,0.01,VWS V14.00,2013-02-07 17:14:00,
2013-02-07 11:19:00,66.3,62.6,29.94,ESE,113,0.0,3.0,88,0.00,,---,0.01,VWS V14.00,2013-02-07 17:19:00,
2013-02-07 11:24:00,66.5,62.8,29.94,SSW,206,5.0,5.0,88,0.00,,---,0.01,VWS V14.00,2013-02-07 17:24:00,
2013-02-07 11:29:00,66.5,62.5,29.94,SSW,211,3.0,5.0,87,0.00,,---,0.01,VWS V14.00,2013-02-07 17:29:00,
2013-02-07 11:34:00,66.5,62.5,29.94,SSW,213,3.0,5.0,87,0.00,,---,0.01,VWS V14.00,2013-02-07 17:34:00,
2013-02-07 11:39:00,66.6,62.6,29.94,East,89,0.0,3.0,87,0.00,,---,0.01,VWS V14.00,2013-02-07 17:39:00,
2013-02-07 11:44:00,66.8,62.8,29.94,ESE,109,3.0,3.0,87,0.00,,---,0.01,VWS V14.00,2013-02-07 17:44:00,
2013-02-07 11:49:00,66.8,62.8,29.94,East,86,0.0,3.0,87,0.00,,---,0.01,VWS V14.00,2013-02-07 17:49:00,
2013-02-07 11:54:00,67.0,63.0,29.94,SE,145,0.0,4.0,87,0.00,,---,0.01,VWS V14.00,2013-02-07 17:54:00,
2013-02-07 11:59:00,67.1,63.1,29.94,SSW,205,4.0,5.0,87,0.00,,---,0.01,VWS V14.00,2013-02-07 17:59:00,
2013-02-07 12:04:00,66.8,62.5,29.94,South,172,0.0,4.0,86,0.00,,---,0.01,VWS V14.00,2013-02-07 18:04:00,
2013-02-07 12:09:00,66.5,62.2,29.94,South,186,2.0,7.0,86,0.00,,---,0.01,VWS V14.00,2013-02-07 18:09:00,
2013-02-07 12:14:00,66.3,62.0,29.94,SW,215,5.0,7.0,86,0.00,,---,0.01,VWS V14.00,2013-02-07 18:14:00,
2013-02-07 12:19:00,66.1,62.1,29.94,South,191,0.0,4.0,87,0.00,,---,0.01,VWS V14.00,2013-02-07 18:19:00,
2013-02-07 12:24:00,66.1,62.1,29.94,SSW,199,4.0,5.0,87,0.00,,---,0.01,VWS V14.00,2013-02-07 18:24:00,
2013-02-07 12:29:00,66.1,62.1,29.94,East,95,2.0,4.0,87,0.00,,---,0.01,VWS V14.00,2013-02-07 18:29:00,
2013-02-07 12:34:00,66.0,62.0,29.93,SSW,209,0.0,6.0,87,0.00,,---,0.01,VWS V14.00,2013-02-07 18:34:00,
2013-02-07 12:39:00,66.1,62.1,29.93,SSW,195,0.0,5.0,87,0.00,,---,0.01,VWS V14.00,2013-02-07 18:39:00,
2013-02-07 12:44:00,66.1,62.1,29.93,SSW,200,4.0,6.0,87,0.00,,---,0.01,VWS V14.00,2013-02-07 18:44:00,
2013-02-07 12:49:00,66.1,62.1,29.93,SSW,209,0.0,5.0,87,0.00,,---,0.01,VWS V14.00,2013-02-07 18:49:00,
2013-02-07 12:54:00,66.3,62.3,29.92,South,172,0.0,5.0,87,0.00,,---,0.01,VWS V14.00,2013-02-07 18:54:00,
2013-02-07 12:59:00,66.6,62.6,29.92,ESE,110,0.0,3.0,87,0.00,,---,0.01,VWS V14.00,2013-02-07 18:59:00,
2013-02-07 13:04:00,66.5,62.5,29.92,SSW,210,0.0,4.0,87,0.00,,---,0.01,VWS V14.00,2013-02-07 19:04:00,
2013-02-07 13:09:00,66.7,62.7,29.91,SSW,202,1.0,4.0,87,0.00,,---,0.01,VWS V14.00,2013-02-07 19:09:00,
2013-02-07 13:14:00,66.6,62.3,29.91,SSW,213,0.0,0.0,86,0.00,,---,0.01,VWS V14.00,2013-02-07 19:14:00,
2013-02-07 13:19:00,66.7,62.7,29.91,SSW,213,0.0,1.0,87,0.00,,---,0.01,VWS V14.00,2013-02-07 19:19:00,
2013-02-07 13:24:00,67.0,63.0,29.91,South,172,2.0,2.0,87,0.00,,---,0.01,VWS V14.00,2013-02-07 19:24:00,
2013-02-07 13:29:00,67.2,63.2,29.91,SSE,165,0.0,1.0,87,0.00,,---,0.01,VWS V14.00,2013-02-07 19:29:00,
2013-02-07 13:34:00,67.5,63.2,29.90,SSE,165,0.0,0.0,86,0.00,,---,0.01,VWS V14.00,2013-02-07 19:34:00,
2013-02-07 13:39:00,67.6,63.3,29.90,South,171,0.0,1.0,86,0.00,,---,0.01,VWS V14.00,2013-02-07 19:39:00,
2013-02-07 13:44:00,67.7,63.4,29.90,NNE,29,0.0,3.0,86,0.00,,---,0.01,VWS V14.00,2013-02-07 19:44:00,
2013-02-07 13:49:00,67.5,63.2,29.90,NE,49,1.0,4.0,86,0.00,,---,0.01,VWS V14.00,2013-02-07 19:49:00,
2013-02-07 13:54:00,67.3,63.0,29.90,East,95,2.0,5.0,86,0.00,,---,0.01,VWS V14.00,2013-02-07 19:54:00,
2013-02-07 13:59:00,67.1,62.8,29.90,East,94,1.0,2.0,86,0.00,,---,0.01,VWS V14.00,2013-02-07 19:59:00,
2013-02-07 14:04:00,67.1,62.8,29.90,NE,42,0.0,3.0,86,0.00,,---,0.01,VWS V14.00,2013-02-07 20:04:00,
2013-02-07 14:09:00,67.2,62.9,29.90,ENE,75,3.0,3.0,86,0.00,,---,0.01,VWS V14.00,2013-02-07 20:09:00,
2013-02-07 14:14:00,67.3,63.0,29.90,East,84,0.0,1.0,86,0.00,,---,0.01,VWS V14.00,2013-02-07 20:14:00,
2013-02-07 14:19:00,67.4,63.1,29.90,East,83,0.0,2.0,86,0.00,,---,0.01,VWS V14.00,2013-02-07 20:19:00,
2013-02-07 14:24:00,67.5,63.2,29.90,ENE,67,0.0,3.0,86,0.00,,---,0.01,VWS V14.00,2013-02-07 20:24:00,
2013-02-07 14:29:00,67.4,62.7,29.90,East,79,0.0,3.0,85,0.00,,---,0.01,VWS V14.00,2013-02-07 20:29:00,
2013-02-07 14:34:00,67.5,63.2,29.90,SE,134,0.0,1.0,86,0.00,,---,0.01,VWS V14.00,2013-02-07 20:34:00,
2013-02-07 14:39:00,67.5,63.2,29.89,ESE,112,2.0,5.0,86,0.00,,---,0.01,VWS V14.00,2013-02-07 20:39:00,
2013-02-07 14:44:00,67.4,62.7,29.89,ESE,113,0.0,2.0,85,0.00,,---,0.01,VWS V14.00,2013-02-07 20:44:00,
2013-02-07 14:49:00,67.5,63.2,29.89,South,191,0.0,4.0,86,0.00,,---,0.01,VWS V14.00,2013-02-07 20:49:00,
2013-02-07 14:54:00,67.5,62.8,29.89,ENE,66,2.0,4.0,85,0.00,,---,0.01,VWS V14.00,2013-02-07 20:54:00,
2013-02-07 14:59:00,67.4,62.7,29.89,ENE,59,0.0,0.0,85,0.00,,---,0.01,VWS V14.00,2013-02-07 20:59:00,
2013-02-07 15:04:00,67.4,63.1,29.89,ENE,68,0.0,1.0,86,0.00,,---,0.01,VWS V14.00,2013-02-07 21:04:00,
2013-02-07 15:09:00,67.4,63.1,29.89,ENE,68,0.0,0.0,86,0.00,,---,0.01,VWS V14.00,2013-02-07 21:09:00,
2013-02-07 15:14:00,67.4,63.1,29.89,East,83,0.0,3.0,86,0.00,,---,0.01,VWS V14.00,2013-02-07 21:14:00,
2013-02-07 15:19:00,67.4,62.7,29.89,East,83,2.0,2.0,85,0.00,,---,0.01,VWS V14.00,2013-02-07 21:19:00,
2013-02-07 15:24:00,67.3,62.6,29.89,East,83,0.0,0.0,85,0.00,,---,0.01,VWS V14.00,2013-02-07 21:24:00,
2013-02-07 15:29:00,67.3,63.0,29.89,South,176,0.0,2.0,86,0.00,,---,0.01,VWS V14.00,2013-02-07 21:29:00,
2013-02-07 15:34:00,67.3,63.0,29.89,South,176,0.0,0.0,86,0.00,,---,0.01,VWS V14.00,2013-02-07 21:34:00,
2013-02-07 15:39:00,67.3,63.0,29.89,ESE,102,2.0,5.0,86,0.00,,---,0.01,VWS V14.00,2013-02-07 21:39:00,
2013-02-07 15:44:00,67.2,62.9,29.89,East,92,0.0,1.0,86,0.00,,---,0.01,VWS V14.00,2013-02-07 21:44:00,
2013-02-07 15:49:00,67.3,63.0,29.89,SW,215,0.0,4.0,86,0.00,,---,0.01,VWS V14.00,2013-02-07 21:49:00,
2013-02-07 15:54:00,67.4,63.1,29.90,SSW,212,3.0,5.0,86,0.00,,---,0.01,VWS V14.00,2013-02-07 21:54:00,
2013-02-07 15:59:00,67.4,62.7,29.90,SSW,199,3.0,6.0,85,0.00,,---,0.01,VWS V14.00,2013-02-07 21:59:00,
2013-02-07 16:04:00,67.3,63.0,29.90,WSW,240,3.0,6.0,86,0.00,,---,0.01,VWS V14.00,2013-02-07 22:04:00,
2013-02-07 16:09:00,67.2,62.9,29.90,SW,221,3.0,6.0,86,0.00,,---,0.01,VWS V14.00,2013-02-07 22:09:00,
2013-02-07 16:14:00,67.1,62.5,29.90,SSW,195,3.0,7.0,85,0.00,,---,0.01,VWS V14.00,2013-02-07 22:14:00,
2013-02-07 16:19:00,67.0,62.3,29.90,SW,219,4.0,7.0,85,0.00,,---,0.01,VWS V14.00,2013-02-07 22:19:00,
2013-02-07 16:24:00,66.9,62.2,29.90,SSW,195,3.0,9.0,85,0.00,,---,0.01,VWS V14.00,2013-02-07 22:24:00,
2013-02-07 16:29:00,66.9,62.2,29.90,SW,236,0.0,5.0,85,0.00,,---,0.01,VWS V14.00,2013-02-07 22:29:00,
2013-02-07 16:34:00,66.8,62.5,29.90,SW,221,2.0,6.0,86,0.00,,---,0.01,VWS V14.00,2013-02-07 22:34:00,
2013-02-07 16:39:00,67.0,62.7,29.90,SSW,210,2.0,5.0,86,0.00,,---,0.01,VWS V14.00,2013-02-07 22:39:00,
2013-02-07 16:44:00,67.6,63.3,29.89,SSW,210,0.0,0.0,86,0.00,,---,0.01,VWS V14.00,2013-02-07 22:44:00,
2013-02-07 16:49:00,67.9,63.6,29.89,SSW,210,0.0,1.0,86,0.00,,---,0.01,VWS V14.00,2013-02-07 22:49:00,
2013-02-07 16:54:00,68.2,63.5,29.89,SSW,210,0.0,0.0,85,0.00,,---,0.01,VWS V14.00,2013-02-07 22:54:00,
2013-02-07 16:59:00,68.7,64.0,29.89,SSW,210,0.0,2.0,85,0.00,,---,0.01,VWS V14.00,2013-02-07 22:59:00,
2013-02-07 17:04:00,68.5,63.5,29.88,SE,128,0.0,2.0,84,0.00,,---,0.01,VWS V14.00,2013-02-07 23:04:00,
2013-02-07 17:08:00,68.2,63.2,29.89,SE,128,0.0,0.0,84,0.00,,---,0.01,VWS V14.00,2013-02-07 23:08:00,
2013-02-07 17:13:00,67.9,62.9,29.89,SE,128,0.0,0.0,84,0.00,,---,0.01,VWS V14.00,2013-02-07 23:13:00,
2013-02-07 17:18:00,67.8,63.1,29.89,SE,128,0.0,0.0,85,0.00,,---,0.01,VWS V14.00,2013-02-07 23:18:00,
2013-02-07 17:23:00,67.6,62.9,29.89,SE,128,0.0,0.0,85,0.00,,---,0.01,VWS V14.00,2013-02-07 23:23:00,
2013-02-07 17:28:00,67.2,62.5,29.89,SE,128,0.0,0.0,85,0.00,,---,0.01,VWS V14.00,2013-02-07 23:28:00,
2013-02-07 17:33:00,67.0,62.3,29.89,SE,128,0.0,0.0,85,0.00,,---,0.01,VWS V14.00,2013-02-07 23:33:00,
2013-02-07 17:38:00,66.9,62.6,29.89,SE,128,0.0,0.0,86,0.00,,---,0.01,VWS V14.00,2013-02-07 23:38:00,
2013-02-07 17:43:00,66.8,62.5,29.89,SE,128,0.0,0.0,86,0.00,,---,0.01,VWS V14.00,2013-02-07 23:43:00,
2013-02-07 17:48:00,66.8,62.5,29.88,SE,128,0.0,0.0,86,0.00,,---,0.01,VWS V14.00,2013-02-07 23:48:00,
2013-02-07 17:53:00,66.7,62.4,29.88,SE,128,0.0,1.0,86,0.00,,---,0.01,VWS V14.00,2013-02-07 23:53:00,
2013-02-07 17:58:00,66.6,62.3,29.89,SE,128,0.0,0.0,86,0.00,,---,0.01,VWS V14.00,2013-02-07 23:58:00,
2013-02-07 18:03:00,66.5,62.2,29.89,SE,128,0.0,0.0,86,0.00,,---,0.01,VWS V14.00,2013-02-08 00:03:00,
2013-02-07 18:08:00,66.4,62.1,29.89,SE,128,0.0,0.0,86,0.00,,---,0.01,VWS V14.00,2013-02-08 00:08:00,
2013-02-07 18:13:00,66.3,62.0,29.89,ENE,76,2.0,3.0,86,0.00,,---,0.01,VWS V14.00,2013-02-08 00:13:00,
2013-02-07 18:18:00,66.1,61.8,29.89,ENE,76,1.0,2.0,86,0.00,,---,0.01,VWS V14.00,2013-02-08 00:18:00,
2013-02-07 18:23:00,65.8,61.8,29.89,East,91,1.0,3.0,87,0.00,,---,0.01,VWS V14.00,2013-02-08 00:23:00,
2013-02-07 18:28:00,65.5,61.5,29.89,ESE,113,1.0,5.0,87,0.00,,---,0.01,VWS V14.00,2013-02-08 00:28:00,
2013-02-07 18:33:00,65.1,61.1,29.89,SE,128,0.0,1.0,87,0.00,,---,0.01,VWS V14.00,2013-02-08 00:33:00,
2013-02-07 18:38:00,64.8,60.8,29.90,ESE,111,0.0,0.0,87,0.00,,---,0.01,VWS V14.00,2013-02-08 00:38:00,
2013-02-07 18:43:00,64.6,60.7,29.90,ESE,111,0.0,0.0,87,0.00,,---,0.01,VWS V14.00,2013-02-08 00:43:00,
2013-02-07 18:48:00,64.4,60.8,29.90,ESE,111,0.0,0.0,88,0.00,,---,0.01,VWS V14.00,2013-02-08 00:48:00,
2013-02-07 18:53:00,64.3,60.7,29.90,ESE,111,0.0,0.0,88,0.00,,---,0.01,VWS V14.00,2013-02-08 00:53:00,
2013-02-07 18:58:00,64.1,60.5,29.90,ESE,111,0.0,0.0,88,0.00,,---,0.01,VWS V14.00,2013-02-08 00:58:00,
2013-02-07 19:03:00,63.9,60.3,29.90,ESE,111,0.0,0.0,88,0.00,,---,0.01,VWS V14.00,2013-02-08 01:03:00,
2013-02-07 19:08:00,63.8,60.2,29.91,ESE,111,0.0,0.0,88,0.00,,---,0.01,VWS V14.00,2013-02-08 01:08:00,
2013-02-07 19:13:00,63.6,60.0,29.91,ESE,111,0.0,0.0,88,0.00,,---,0.01,VWS V14.00,2013-02-08 01:13:00,
2013-02-07 19:18:00,63.5,59.9,29.91,ESE,111,0.0,1.0,88,0.00,,---,0.01,VWS V14.00,2013-02-08 01:18:00,
2013-02-07 19:23:00,63.4,59.8,29.91,ESE,111,0.0,2.0,88,0.00,,---,0.01,VWS V14.00,2013-02-08 01:23:00,
2013-02-07 19:28:00,63.3,60.0,29.91,ESE,111,0.0,1.0,89,0.00,,---,0.01,VWS V14.00,2013-02-08 01:28:00,
2013-02-07 19:33:00,63.1,59.8,29.91,ESE,111,0.0,3.0,89,0.00,,---,0.01,VWS V14.00,2013-02-08 01:33:00,
2013-02-07 19:38:00,63.0,59.7,29.92,ESE,111,0.0,0.0,89,0.00,,---,0.01,VWS V14.00,2013-02-08 01:38:00,
2013-02-07 19:43:00,62.9,59.6,29.92,ESE,111,0.0,0.0,89,0.00,,---,0.01,VWS V14.00,2013-02-08 01:43:00,
2013-02-07 19:48:00,62.9,59.6,29.92,ESE,111,0.0,0.0,89,0.00,,---,0.01,VWS V14.00,2013-02-08 01:48:00,
2013-02-07 19:53:00,62.9,59.6,29.92,SSW,195,2.0,2.0,89,0.00,,---,0.01,VWS V14.00,2013-02-08 01:53:00,
2013-02-07 19:58:00,62.9,59.6,29.92,SSW,205,2.0,2.0,89,0.00,,---,0.01,VWS V14.00,2013-02-08 01:58:00,
2013-02-07 20:03:00,62.8,59.8,29.92,ESE,123,0.0,4.0,90,0.00,,---,0.01,VWS V14.00,2013-02-08 02:03:00,
2013-02-07 20:08:00,62.8,59.8,29.92,SE,126,0.0,3.0,90,0.00,,---,0.01,VWS V14.00,2013-02-08 02:08:00,
2013-02-07 20:13:00,62.8,59.8,29.93,South,172,0.0,3.0,90,0.00,,---,0.01,VWS V14.00,2013-02-08 02:13:00,
2013-02-07 20:18:00,62.9,59.9,29.93,ESE,122,0.0,3.0,90,0.00,,---,0.01,VWS V14.00,2013-02-08 02:18:00,
2013-02-07 20:23:00,62.8,59.8,29.93,East,100,0.0,4.0,90,0.00,,---,0.01,VWS V14.00,2013-02-08 02:23:00,
2013-02-07 20:28:00,62.9,59.9,29.93,East,92,0.0,4.0,90,0.00,,---,0.01,VWS V14.00,2013-02-08 02:28:00,
2013-02-07 20:33:00,62.8,59.8,29.93,SSE,147,0.0,1.0,90,0.00,,---,0.01,VWS V14.00,2013-02-08 02:33:00,
2013-02-07 20:38:00,62.8,59.8,29.94,South,180,0.0,1.0,90,0.00,,---,0.01,VWS V14.00,2013-02-08 02:38:00,
2013-02-07 20:43:00,62.8,59.8,29.93,South,184,0.0,4.0,90,0.00,,---,0.01,VWS V14.00,2013-02-08 02:43:00,
2013-02-07 20:48:00,62.8,59.8,29.94,SW,214,1.0,4.0,90,0.00,,---,0.01,VWS V14.00,2013-02-08 02:48:00,
2013-02-07 20:53:00,62.8,59.8,29.94,SSW,194,0.0,3.0,90,0.00,,---,0.01,VWS V14.00,2013-02-08 02:53:00,
2013-02-07 20:58:00,62.8,59.8,29.94,SW,219,4.0,5.0,90,0.00,,---,0.01,VWS V14.00,2013-02-08 02:58:00,
2013-02-07 21:03:00,62.8,59.8,29.94,SSW,202,0.0,4.0,90,0.00,,---,0.01,VWS V14.00,2013-02-08 03:03:00,
2013-02-07 21:08:00,62.8,59.8,29.94,SSW,206,1.0,4.0,90,0.00,,---,0.01,VWS V14.00,2013-02-08 03:08:00,
2013-02-07 21:13:00,62.8,59.8,29.94,SSE,157,0.0,1.0,90,0.00,,---,0.01,VWS V14.00,2013-02-08 03:13:00,
2013-02-07 21:18:00,62.9,59.9,29.94,South,173,1.0,1.0,90,0.00,,---,0.01,VWS V14.00,2013-02-08 03:18:00,
2013-02-07 21:23:00,62.9,59.9,29.94,ESE,107,0.0,1.0,90,0.00,,---,0.01,VWS V14.00,2013-02-08 03:23:00,
2013-02-07 21:28:00,62.8,59.8,29.94,South,190,1.0,4.0,90,0.00,,---,0.01,VWS V14.00,2013-02-08 03:28:00,
2013-02-07 21:33:00,62.9,59.9,29.94,South,183,2.0,4.0,90,0.00,,---,0.01,VWS V14.00,2013-02-08 03:33:00,
2013-02-07 21:38:00,62.9,59.9,29.94,SSW,194,4.0,6.0,90,0.00,,---,0.01,VWS V14.00,2013-02-08 03:38:00,
2013-02-07 21:43:00,62.9,60.2,29.94,SSE,161,0.0,3.0,91,0.00,,---,0.01,VWS V14.00,2013-02-08 03:43:00,
2013-02-07 21:48:00,62.9,60.2,29.94,South,191,2.0,3.0,91,0.00,,---,0.01,VWS V14.00,2013-02-08 03:48:00,
2013-02-07 21:53:00,62.9,60.2,29.94,SSW,200,2.0,5.0,91,0.00,,---,0.01,VWS V14.00,2013-02-08 03:53:00,
2013-02-07 21:58:00,62.9,60.2,29.94,South,182,2.0,4.0,91,0.00,,---,0.01,VWS V14.00,2013-02-08 03:58:00,
2013-02-07 22:03:00,62.9,60.2,29.94,SSW,211,2.0,5.0,91,0.00,,---,0.01,VWS V14.00,2013-02-08 04:03:00,
2013-02-07 22:08:00,62.9,60.2,29.94,SSW,200,1.0,3.0,91,0.00,,---,0.01,VWS V14.00,2013-02-08 04:08:00,
2013-02-07 22:13:00,62.9,60.2,29.94,SSW,202,2.0,5.0,91,0.00,,---,0.01,VWS V14.00,2013-02-08 04:13:00,
2013-02-07 22:18:00,62.9,60.2,29.94,SSW,196,0.0,4.0,91,0.00,,---,0.01,VWS V14.00,2013-02-08 04:18:00,
2013-02-07 22:23:00,62.9,60.2,29.94,SSW,194,4.0,4.0,91,0.00,,---,0.01,VWS V14.00,2013-02-08 04:23:00,
2013-02-07 22:28:00,63.0,60.3,29.94,SW,219,0.0,3.0,91,0.00,,---,0.01,VWS V14.00,2013-02-08 04:28:00,
2013-02-07 22:33:00,63.1,60.4,29.94,SW,218,0.0,1.0,91,0.00,,---,0.01,VWS V14.00,2013-02-08 04:33:00,
2013-02-07 22:38:00,63.1,60.4,29.95,SSW,213,2.0,2.0,91,0.00,,---,0.01,VWS V14.00,2013-02-08 04:38:00,
2013-02-07 22:43:00,63.2,60.5,29.95,SSW,213,0.0,1.0,91,0.00,,---,0.01,VWS V14.00,2013-02-08 04:43:00,
2013-02-07 22:48:00,63.2,60.2,29.96,SSW,213,0.0,2.0,90,0.00,,---,0.01,VWS V14.00,2013-02-08 04:48:00,
2013-02-07 22:53:00,63.2,60.2,29.96,SW,233,3.0,3.0,90,0.00,,---,0.01,VWS V14.00,2013-02-08 04:53:00,
2013-02-07 22:58:00,63.3,60.3,29.96,SW,233,0.0,1.0,90,0.00,,---,0.01,VWS V14.00,2013-02-08 04:58:00,
2013-02-07 23:00:00,63.3,60.3,29.96,SW,233,0.0,1.0,90,0.00,,---,0.01,VWS V14.00,2013-02-08 05:00:00,
2013-02-07 23:05:00,63.3,60.3,29.97,WNW,284,2.0,3.0,90,0.00,,---,0.01,VWS V14.00,2013-02-08 05:05:00,
2013-02-07 23:10:00,63.3,60.9,29.98,WNW,290,0.0,4.0,92,0.00,,---,0.01,VWS V14.00,2013-02-08 05:10:00,
2013-02-07 23:15:00,63.3,60.9,29.98,WNW,290,1.0,4.0,92,0.00,,---,0.01,VWS V14.00,2013-02-08 05:15:00,
2013-02-07 23:20:00,63.3,60.3,29.98,WNW,298,0.0,4.0,90,0.00,,---,0.01,VWS V14.00,2013-02-08 05:20:00,
2013-02-07 23:25:00,63.3,60.3,29.98,WNW,298,0.0,1.0,90,0.00,,---,0.01,VWS V14.00,2013-02-08 05:25:00,
2013-02-07 23:30:00,63.3,60.3,29.98,WSW,246,0.0,3.0,90,0.00,,---,0.01,VWS V14.00,2013-02-08 05:30:00,
2013-02-07 23:35:00,63.2,60.2,29.97,WSW,246,0.0,0.0,90,0.00,,---,0.01,VWS V14.00,2013-02-08 05:35:00,
2013-02-07 23:40:00,63.2,60.2,29.97,WSW,246,0.0,0.0,90,0.00,,---,0.01,VWS V14.00,2013-02-08 05:40:00,
2013-02-07 23:45:00,63.0,60.0,29.97,WSW,246,0.0,1.0,90,0.00,,---,0.01,VWS V14.00,2013-02-08 05:45:00,
2013-02-07 23:50:00,62.9,59.9,29.97,WSW,246,0.0,0.0,90,0.00,,---,0.01,VWS V14.00,2013-02-08 05:50:00,
2013-02-07 23:55:00,62.7,59.7,29.97,WSW,246,0.0,0.0,90,0.00,,---,0.01,VWS V14.00,2013-02-08 05:55:00,